View from above orbital plane
|
View from above satellite
|
Ground track
|
The orbit data is extracted from the following two-line orbital elements,
1 21088U 91006B 21058.86213703 .00000109 00000-0 93902-4 0 9998
2 21088 82.9391 95.3416 0023676 133.7089 39.5002 13.77150667511634
Epoch (UTC): | 27 February 2021 20:41:28 |
Eccentricity: | 0.0023676 |
inclination: | 82.9391° |
perigee height: | 956 km |
apogee height: | 991 km |
right ascension of ascending node: | 95.3416° |
argument of perigee: | 133.7089° |
revolutions per day: | 13.77150667 |
mean anomaly at epoch: | 39.5002° |
orbit number at epoch: | 51163 |
The dashed part of the orbit path shows where the satellite is in the earth's shadow,
|
|